Grand Marais, MN

2:52 PM CDT on August 25, 2016 (GMT -0500)
Grand Marais

Weather History for KGNA - December, 2013

Change the Weather History Date:

Monday, December 9, 2013

  Actual Average (KCKC) Record (KCKC)
Temperature  
Mean Temperature 9 °F -  
Max Temperature 23 °F 25 °F 44 °F (2006)
Min Temperature -5 °F 13 °F -14 °F (2007)
Degree Days  
Heating Degree Days 56    
Moisture  
Dew Point -2 °F    
Average Humidity 68    
Maximum Humidity 81    
Minimum Humidity 55    
Precipitation  
Precipitation 0.04 in - - ()
Sea Level Pressure  
Sea Level Pressure 29.91 in    
Wind  
Wind Speed 9 mph (West)    
Max Wind Speed 17 mph    
Max Gust Speed 26 mph    
Averages and records for this station are not official NWS values.
T = Trace of Precipitation, MM = Missing Value Source: NWS Daily Summary

Daily Weather History Graph

Daily Weather History Graph

Search for Another Location

Airport or City:

Trip Planner

Search our weather history database for the weather conditions in past years. The results will help you decide how hot, cold, wet, or windy it might be!

Date:

Astronomy

Dec. 09, 2013 Rise Set
Actual Time 7:38 AM CST 4:09 PM CST
Civil Twilight 7:02 AM CST 4:45 PM CST
Nautical Twilight 6:23 AM CST 5:24 PM CST
Astronomical Twilight 5:45 AM CST 6:01 PM CST
Moon 12:05 PM CST (12/9) No Moon Set
Length of Visible Light 9h 42m
Length of Day
8h 30m
Waxing Crescent, 51% of the Moon is Illuminated
Dec 9
Waxing Crescent
Dec 17
Full
Dec 25
Last Quarter
Jan 1
New
Jan 7
First Quarter

Hourly Weather History & Observations

Time (CST) Temp. Windchill Dew Point Humidity Pressure Visibility Wind Dir Wind Speed Gust Speed Precip Events Conditions
12:56 AM 23.0 °F 9.2 °F 16.0 °F 74% 29.98 in - SSW 17.3 mph - N/A   Unknown
1:56 AM 19.0 °F 12.3 °F 14.0 °F 81% 29.96 in - Variable 4.6 mph - 0.02 in   Unknown
2:56 AM 15.1 °F 4.2 °F 9.0 °F 77% 29.94 in - NW 8.1 mph - 0.01 in   Unknown
3:56 AM 12.9 °F 2.6 °F 5.0 °F 71% 29.90 in - NW 6.9 mph - 0.01 in   Unknown
4:56 AM 10.9 °F -1.8 °F 1.9 °F 67% 29.89 in - NNW 9.2 mph - N/A   Unknown
5:56 AM 10.9 °F - -0.0 °F 61% 29.87 in - Calm Calm - N/A   Unknown
6:56 AM 10.0 °F 0.4 °F 1.9 °F 70% 29.86 in - Variable 5.8 mph - N/A   Unknown
7:56 AM 7.0 °F -1.7 °F -0.9 °F 70% 29.86 in - Variable 4.6 mph - N/A   Unknown
8:56 AM 8.1 °F -4.3 °F -0.0 °F 70% 29.86 in - West 8.1 mph - N/A   Unknown
9:56 AM 9.0 °F -3.2 °F 1.0 °F 70% 29.85 in - West 8.1 mph - N/A   Unknown
10:56 AM 10.0 °F -1.9 °F -0.0 °F 64% 29.83 in - West 8.1 mph - N/A   Unknown
11:56 AM 9.0 °F -5.9 °F -2.0 °F 61% 29.81 in - WNW 11.5 mph 18.4 mph N/A   Unknown
12:56 PM 8.1 °F -5.3 °F -5.1 °F 55% 29.81 in - WNW 9.2 mph 26.5 mph N/A   Unknown
1:56 PM 6.1 °F - -6.0 °F 58% 29.83 in - North - - N/A   Unknown
2:56 PM - - - N/A% 29.80 in - West 11.5 mph 26.5 mph N/A   Unknown
3:56 PM 1.9 °F -11.8 °F -8.0 °F 63% 29.91 in - West 8.1 mph - N/A   Unknown
4:56 PM 1.0 °F -14.9 °F -8.0 °F 66% 29.96 in - West 10.4 mph 19.6 mph N/A   Unknown
5:56 PM -0.9 °F -14.1 °F -9.0 °F 69% 29.99 in - West 6.9 mph 16.1 mph N/A   Unknown
6:56 PM -0.9 °F -16.4 °F -8.0 °F 72% 30.00 in - West 9.2 mph 18.4 mph N/A   Unknown
7:56 PM -2.0 °F -15.4 °F -9.0 °F 72% 30.01 in - West 6.9 mph - N/A   Unknown
8:56 PM -5.1 °F -17.6 °F -13.0 °F 69% 30.02 in - West 5.8 mph - N/A   Unknown
9:56 PM -0.9 °F -15.3 °F -8.0 °F 72% 30.00 in - West 8.1 mph - N/A   Unknown
10:56 PM -2.9 °F -15.0 °F -11.0 °F 68% 29.99 in - West 5.8 mph - N/A   Unknown
11:56 PM -4.0 °F -14.6 °F -13.0 °F 65% 29.96 in - West 4.6 mph - N/A   Unknown